Theta_e
304 303 303 303 304 305 308 311 313 316 320 322 324 325 329 328 328 328 331 330 329 329
303 303 302 302 303 305 308 308 311 313 316 321 323 322 325 326 326 327 330 330 329 328
303 303 302 302 302 304 306 310 311 312 315 319 320 322 324 325 326 326 327 330 328 324
302 303 301 301 302 303 306 308 309 312 314 315 318 323 324 324 324 325 325 325 325 321
302 302 300 299 301 303 304 307 308 312 311 315 322 324 323 322 323 322 322 323 319 318
301 300 298 300 301 302 303 304 307 310 311 318 320 320 321 321 322 321 320 320 318 315
300 299 299 300 301 302 302 303 307 310 313 316 320 321 320 320 319 318 317 315 314 314
299 300 299 300 301 302 302 303 306 309 311 318 320 318 317 315 313 311 311 312 313 313
298 298 299 300 300 301 302 304 305 309 311 317 318 316 314 311 310 310 309 309 311 312
297 297 298 299 300 301 301 304 304 309 309 318 314 315 314 313 311 310 309 309 308 308
297 297 298 299 300 301 303 303 305 307 315 314 313 314 313 311 308 306 305 305 305 303
297 297 298 298 299 301 301 302 305 311 315 311 309 309 307 303 300 299 299 300 300 301
297 295 297 299 300 301 302 302 310 307 307 307 304 307 305 301 299 297 297 299 301 303
295 295 297 299 300 299 300 304 305 304 305 304 304 304 305 305 301 301 299 299 299 299
Wind_Speed
13 11 12 14 14 12 12 12 13 13 15 16 14 10 13 9 9 12 14 15 12 8
13 15 15 18 16 12 14 11 13 14 16 16 15 11 12 9 11 12 12 10 11 8
14 15 16 16 18 16 14 14 16 15 14 16 13 11 13 11 11 11 9 9 11 9
14 15 16 17 17 17 17 17 17 16 16 15 16 12 10 9 11 13 10 9 10 12
14 15 16 17 18 18 16 18 16 17 14 16 12 11 11 11 10 11 12 14 15 14
15 15 17 17 18 17 16 15 18 14 14 13 5 5 7 9 9 12 12 14 14 15
16 15 18 18 18 18 15 15 16 16 13 11 7 10 8 9 11 13 13 13 13 13
16 16 18 17 17 18 16 14 16 15 11 8 6 7 11 12 14 16 15 14 13 13
17 18 17 18 17 17 16 14 15 12 13 7 6 17 19 19 13 18 17 17 16 16
18 18 17 18 16 17 16 14 15 13 13 7 15 28 27 25 14 16 18 18 16 15
18 18 17 16 16 16 14 15 14 13 6 16 16 29 31 31 17 16 17 18 19 20
17 17 17 16 16 15 14 13 12 4 14 17 19 34 33 25 18 19 18 16 17 20
15 15 16 16 15 14 12 12 3 12 15 22 22 32 32 25 15 20 16 17 18 25
13 13 15 14 13 12 11 4 10 13 11 14 17 23 31 30 17 17 16 14 14 14
Wind_Direction
331 332 324 329 311 299 296 300 302 289 284 285 285 275 258 224 206 214 216 200 184 183
326 327 327 324 315 299 298 291 281 280 281 278 274 263 240 215 200 206 208 191 185 177
320 323 324 321 317 305 298 295 288 286 280 281 285 256 228 213 197 191 188 175 169 143
317 321 325 317 312 311 304 301 304 303 297 296 280 234 191 181 179 182 165 151 159 154
316 319 323 316 315 317 304 301 307 297 292 287 255 192 181 167 172 165 164 154 146 131
315 321 320 319 316 310 307 306 299 302 290 284 192 167 145 159 152 153 149 140 130 123
316 317 318 321 313 315 312 304 305 300 294 303 182 162 139 134 130 130 123 117 115 121
313 309 314 318 318 316 313 301 306 304 302 261 135 129 123 120 121 108 103 96 99 107
312 311 315 320 319 314 314 314 307 303 321 223 119 109 120 116 113 114 106 101 103 107
308 312 315 319 316 315 312 317 302 302 300 134 131 122 111 101 100 102 107 109 108 103
309 310 312 317 314 315 316 318 304 291 243 126 119 111 103 99 98 95 93 99 103 102
308 310 313 315 316 313 314 308 306 299 131 122 114 112 109 104 99 95 91 94 99 105
308 309 305 312 311 311 304 304 349 79 88 118 114 113 112 110 110 99 98 97 99 104
299 302 301 308 309 306 299 285 93 87 87 89 108 117 118 117 112 109 106 103 102 103